Home   Weather   Moscow   Past weeks
Flag for USA

Past Weather in Moscow, Minnesota, USA — Yesterday and Last 2 Weeks

Currently: 73 °F. Thundershowers. Fog. (Weather station: Fillmore County Airport, USA). See more current weather

Past Weather in Moscow — Graph

°F

Moscow Temperature Yesterday

Maximum temperature yesterday: 75 °F (at 12:15 pm)
Minimum temperature yesterday: 59 °F (at 2:35 am)
Average temperature yesterday: 67 °F

High & Low Weather Summary for the Past Weeks

 TemperatureHumidityPressure
High86 °F (Jun 16, 3:15 pm)100% (Jun 8, 2:55 am)30.33 "Hg (Jun 8, 2:55 am)
Low50 °F (Jun 10, 5:15 am)31% (Jun 10, 5:35 pm)29.69 "Hg (Jun 16, 5:15 pm)
Average68 °F77%29.95 "Hg
* Reported Jun 6 2:15 pm — Jun 21 2:55 pm, Moscow. Weather by CustomWeather, © 2024

Note: Actual official high and low records may vary slightly from our data, if they occured in-between our weather recording intervals... More about our weather records

Moscow Weather History for the Previous 24 Hours

Scroll right to see more
 ConditionsComfort  
Time TempWeatherWind HumidityBarometerVisibility
2:55 pm
Fri, Jun 21
84 °FScattered clouds.9 mph79%30.05 "Hg10 mi
2:35 pm84 °FSunny.9 mph84%30.06 "Hg10 mi
2:15 pm84 °FThundershowers. Sunny.7 mph84%30.07 "Hg10 mi
1:55 pm81 °FPassing clouds.6 mph94%30.08 "Hg10 mi
1:35 pm77 °FScattered clouds.5 mph94%30.10 "Hg10 mi
1:15 pm81 °FBroken clouds.13 mph89%30.11 "Hg10 mi
12:55 pm81 °FScattered clouds.9 mph100%30.11 "Hg9 mi
12:35 pm79 °FBroken clouds.10 mph100%30.12 "Hg8 mi
12:15 pm77 °FPartly sunny.12 mph100%30.13 "Hg8 mi
11:55 am77 °FPartly sunny.9 mph100%30.13 "Hg8 mi
11:35 am75 °FPartly sunny.8 mph100%30.13 "Hg9 mi
11:15 am73 °FPartly sunny.9 mph100%30.14 "Hg10 mi
10:55 am73 °FBroken clouds.5 mph100%30.15 "Hg10 mi
10:35 am70 °FPartly sunny.6 mph100%30.15 "Hg9 mi
10:15 am70 °FPartly sunny.7 mph100%30.16 "Hg9 mi
9:55 am66 °FPartly sunny.5 mph100%30.16 "Hg10 mi
9:35 am66 °FFog.7 mph100%30.16 "Hg5 mi
9:15 am66 °FLight rain. Fog.5 mph100%30.19 "Hg2 mi
8:55 am66 °FRain. Fog.No wind100%30.20 "Hg1 mi
8:35 am66 °FLight rain. Fog.5 mph100%30.19 "Hg0 mi
8:15 am64 °FLight rain. Fog.5 mph100%30.20 "Hg0 mi
7:55 am64 °FLight rain. Fog.8 mph100%30.19 "Hg0 mi
7:35 am64 °FFog.6 mph100%30.19 "Hg0 mi
7:15 am64 °FLight rain. Fog.8 mph100%30.19 "Hg0 mi
6:55 am64 °FFog.9 mph100%30.19 "Hg0 mi
6:35 am64 °FLight rain. Fog.9 mph100%30.19 "Hg0 mi
6:15 am64 °FThundershowers. Fog.10 mph100%30.19 "Hg0 mi
5:55 am64 °FLight rain. Fog.8 mph100%30.19 "Hg0 mi
5:35 am64 °FLight rain. Fog.9 mph100%30.20 "Hg0 mi
4:55 am64 °FLight rain. Fog.9 mph100%30.21 "Hg0 mi
4:15 am64 °FFog.8 mph100%30.20 "Hg0 mi
3:55 am64 °FFog.8 mph100%30.21 "Hg0 mi
3:15 am64 °FFog.6 mph100%30.21 "Hg1 mi
2:55 am64 °FFog.6 mph100%30.21 "Hg1 mi
2:35 am66 °FFog.6 mph100%30.21 "Hg1 mi
2:15 am66 °FFog.6 mph100%30.22 "Hg2 mi
1:55 am66 °FFog.3 mph100%30.22 "Hg5 mi
1:15 am66 °FLow clouds.6 mph100%30.22 "Hg7 mi
12:35 am66 °FLow clouds.7 mph100%30.23 "Hg7 mi
12:15 am66 °FFog.9 mph100%30.24 "Hg6 mi
11:55 pm
Thu, Jun 20
66 °FFog.7 mph100%30.25 "Hg6 mi
11:35 pm66 °FFog.8 mph100%30.26 "Hg5 mi
11:15 pm66 °FFog.10 mph100%30.27 "Hg5 mi
10:55 pm66 °FFog.9 mph100%30.26 "Hg6 mi
10:35 pm66 °FLow clouds.9 mph100%30.26 "Hg7 mi
10:15 pm66 °FLight rain. Fog.10 mph100%30.26 "Hg6 mi
9:35 pm68 °FLow clouds.9 mph100%30.27 "Hg7 mi
8:55 pm68 °FLow clouds.8 mph100%30.27 "Hg10 mi
8:15 pm70 °FLow clouds.6 mph100%30.27 "Hg10 mi
7:55 pm70 °FOvercast.6 mph100%30.26 "Hg10 mi
7:35 pm70 °FMostly cloudy.5 mph100%30.26 "Hg10 mi
7:15 pm72 °FOvercast.10 mph100%30.24 "Hg10 mi
6:55 pm72 °FScattered clouds.9 mph100%30.24 "Hg10 mi
6:15 pm72 °FPartly sunny.12 mph100%30.24 "Hg10 mi
5:55 pm72 °FPartly sunny.9 mph100%30.25 "Hg10 mi
5:35 pm72 °FScattered clouds.10 mph100%30.25 "Hg10 mi
5:15 pm73 °FScattered clouds.10 mph94%30.27 "Hg10 mi
4:55 pm72 °FScattered clouds.8 mph100%30.28 "Hg10 mi
4:15 pm72 °FBroken clouds.15 mph100%30.29 "Hg8 mi
Weather by CustomWeather, © 2024

See weather overview